RH
70 69 69 68 67 67 66 65 65 64 63 64 64 63 63 62 61 62 61 59 63 67 66 61 53 46 41 37 32 31 30 27 25 24 23 23 23 23 26 28 29 29 28 29 29 29 27 26 26 24 23 24 22 23 23 22 24 23 23 23 21 24 25 27 43 49 31 22 27 26 24 26 25 24 24 22 20 21 22 21 22 23 24 24 23
69 68 68 67 67 66 65 65 65 65 65 65 65 65 65 64 63 62 61 60 61 65 68 65 58 53 50 45 37 33 32 31 30 29 27 25 24 25 27 29 30 30 30 29 29 30 29 27 26 25 24 24 23 24 25 24 25 25 24 25 23 24 27 27 37 48 39 25 25 27 27 28 27 26 26 23 22 22 22 21 23 24 25 26 25
69 68 67 67 66 65 65 65 65 66 66 66 66 67 66 65 65 64 62 61 59 61 64 64 62 60 57 54 47 40 34 33 33 32 29 27 26 26 27 29 29 29 29 29 29 29 30 28 27 25 25 24 24 25 26 27 28 27 26 26 26 25 27 29 32 39 41 31 24 26 29 28 26 26 27 26 25 24 23 23 24 25 27 28 28
72 69 68 67 66 66 65 65 66 66 66 67 66 66 66 66 66 65 63 62 60 59 61 65 65 63 62 62 58 49 40 36 34 33 32 31 30 27 26 28 29 29 28 28 29 29 29 28 27 26 25 25 26 27 28 30 29 29 29 27 27 27 27 30 31 33 39 38 28 24 26 27 25 25 27 28 26 24 25 26 26 28 31 32 30
73 72 70 68 66 66 65 65 66 66 66 66 66 66 67 66 66 66 65 63 61 59 60 64 66 65 64 64 62 56 47 39 34 33 33 34 34 30 27 28 29 30 30 28 29 29 29 28 27 27 27 27 29 30 31 33 33 32 31 29 29 31 30 31 33 33 38 40 32 25 24 25 25 23 27 32 29 25 24 27 31 34 37 36 33
72 74 74 71 68 67 66 66 66 66 65 65 65 66 66 66 66 65 65 63 62 61 60 61 64 65 66 65 65 60 51 42 37 33 31 32 35 36 34 33 32 32 32 31 30 30 29 29 28 27 29 30 32 34 34 36 36 34 34 33 32 32 32 33 34 36 37 37 37 35 29 27 29 27 27 32 35 33 32 35 39 42 44 42 36
69 74 75 74 71 69 68 67 66 66 66 65 65 66 66 66 66 64 64 63 62 61 61 60 61 63 66 66 66 62 55 49 42 37 34 33 36 39 39 37 36 34 33 32 32 32 31 30 29 29 32 34 36 38 39 39 39 38 36 35 35 35 35 35 36 39 40 38 41 46 41 34 34 33 29 31 38 40 45 54 57 55 58 60 51
65 71 75 76 75 72 70 69 68 67 67 67 67 68 67 67 66 65 65 63 62 61 60 60 61 63 66 67 66 65 62 57 50 44 40 38 38 40 40 39 37 35 35 34 33 33 32 31 32 32 35 39 41 43 44 44 43 42 39 38 38 37 36 37 39 41 42 43 46 52 53 46 40 39 37 39 47 49 53 67 75 71 71 79 77
63 68 74 76 75 74 73 72 71 70 70 70 70 70 69 69 68 67 67 65 64 63 61 62 63 65 67 67 67 67 66 61 54 50 47 44 41 39 38 38 37 35 35 36 35 35 34 33 34 37 39 43 46 48 50 50 47 45 43 42 41 39 39 41 44 43 45 50 53 58 65 59 47 47 50 49 54 58 60 69 80 83 85 89 89
64 67 71 72 72 75 76 76 75 74 73 72 72 71 71 71 70 70 69 68 67 68 68 68 68 68 68 68 67 67 66 62 56 52 51 48 44 42 40 39 39 38 36 37 36 35 36 36 37 41 44 47 52 54 55 53 51 49 48 45 42 41 42 44 45 46 48 53 55 62 74 67 48 48 54 51 54 61 66 76 86 93 98 97 89
65 66 67 68 70 75 78 79 79 77 76 75 74 74 73 73 73 73 72 72 71 72 73 73 73 72 68 68 68 68 66 64 60 57 56 55 51 48 46 43 41 41 38 37 37 36 37 40 42 45 48 52 58 60 59 57 55 52 51 48 46 45 46 46 46 46 49 53 54 60 71 66 45 41 49 52 57 64 71 84 95 99 101 101 95
65 66 66 67 70 74 77 79 80 79 79 78 77 77 76 76 76 77 76 75 74 75 77 76 77 75 71 71 72 70 67 66 66 63 62 62 59 53 50 47 43 42 41 38 37 37 39 43 47 49 53 59 63 64 63 61 58 56 53 51 50 49 48 48 46 44 45 51 54 56 60 60 48 41 46 52 60 70 81 93 101 102 100 100 102
65 64 65 67 69 71 74 77 80 80 80 80 79 79 80 79 79 79 78 78 77 78 79 79 79 78 77 76 74 71 70 69 71 70 67 71 72 61 54 53 47 43 42 40 39 41 43 47 51 54 59 65 69 68 66 64 61 59 57 55 54 52 51 50 46 43 43 50 56 53 47 49 48 40 41 52 65 79 94 100 99 100 100 99 103
65 63 63 65 67 69 72 75 78 79 80 81 81 81 82 81 81 81 81 81 81 81 81 81 81 80 80 79 74 72 72 71 73 73 70 79 89 77 60 56 53 47 43 42 42 44 47 51 55 59 65 70 72 71 70 67 64 61 59 58 57 54 54 51 46 42 43 48 52 46 38 42 47 40 41 60 79 91 99 102 100 102 102 98 98
66 63 63 64 64 67 71 73 76 78 79 81 82 83 83 83 83 83 84 83 82 82 83 83 84 83 82 81 78 75 74 72 74 76 73 80 97 94 74 63 59 54 49 48 47 49 52 57 60 65 70 74 75 75 73 69 66 64 62 61 59 57 55 51 45 42 42 43 44 43 39 38 39 41 52 74 95 102 101 100 97 96 94 91 91
67 65 64 63 63 65 67 70 74 76 79 82 83 83 84 83 83 84 85 85 84 84 85 85 85 84 83 84 83 80 76 73 74 78 76 80 96 102 90 77 67 60 57 56 53 54 59 61 64 70 76 79 80 79 75 71 69 68 66 64 62 58 54 49 45 42 40 40 40 40 38 38 48 64 80 94 101 94 87 83 76 76 86 94 93
71 70 68 66 65 65 65 68 71 73 77 81 82 82 82 82 84 85 86 87 87 86 86 85 85 86 86 86 85 80 77 77 77 78 77 82 94 102 99 91 79 67 64 63 59 59 62 64 68 75 81 83 84 81 77 73 71 71 69 67 63 58 53 48 44 40 38 37 37 38 38 46 62 74 77 79 77 68 71 77 71 75 95 103 96
78 76 74 72 70 68 67 67 68 71 75 77 77 78 80 81 83 84 86 87 86 85 86 86 87 88 88 86 84 80 79 79 80 80 80 83 94 101 101 99 90 76 69 69 66 64 64 67 73 80 84 86 85 82 77 74 73 72 70 66 61 56 52 48 43 40 39 38 37 37 38 41 47 48 47 51 53 53 65 77 75 83 101 104 99
84 82 80 78 75 71 70 69 68 70 71 72 72 74 76 79 82 84 86 86 85 85 87 88 89 89 89 88 85 83 83 83 83 84 84 85 93 100 100 101 98 85 73 72 73 72 73 76 80 84 87 87 86 83 79 76 75 72 68 65 60 54 50 47 44 41 40 39 37 37 36 36 37 39 43 47 48 51 61 71 75 85 98 103 103
89 87 85 82 78 75 73 71 70 70 70 69 70 72 75 79 83 85 86 86 86 87 88 89 90 90 89 89 88 87 87 88 88 86 87 89 94 100 101 101 100 91 79 75 76 82 89 91 87 86 87 88 88 85 82 79 75 71 67 63 58 53 49 47 44 42 40 39 37 36 35 34 35 40 44 44 45 52 62 70 77 84 92 100 104
94 92 90 87 82 79 76 73 72 71 70 71 72 74 77 80 83 85 86 87 89 89 89 90 91 92 91 89 91 91 90 90 90 88 89 93 96 100 101 100 98 94 86 82 83 89 97 95 87 85 86 88 89 87 84 81 75 70 65 60 55 51 48 45 41 40 40 38 37 36 34 34 35 38 41 42 45 54 64 72 79 84 87 95 102
97 96 94 91 87 83 79 76 74 73 72 74 76 77 79 82 84 85 87 89 90 91 92 93 93 94 94 92 94 95 93 93 93 91 92 96 99 101 100 97 97 96 92 91 91 94 96 91 83 82 86 88 89 89 87 82 75 68 62 57 54 49 45 42 40 38 38 38 39 38 34 34 37 37 38 43 48 59 70 77 82 84 83 86 93
99 99 98 96 93 88 83 79 76 75 74 75 77 79 81 84 87 88 88 90 92 93 94 95 95 96 97 97 97 98 97 96 95 94 94 97 101 101 96 94 98 99 95 93 93 93 92 87 82 83 86 89 91 92 89 81 72 65 59 55 52 47 42 41 39 37 38 41 43 41 36 37 41 41 43 49 55 64 76 81 81 81 81 82 86
100 100 100 99 97 93 89 83 78 76 76 76 79 82 84 86 89 90 90 91 94 96 96 96 97 98 99 101 101 100 100 99 98 96 96 98 102 100 93 94 101 102 98 95 93 91 88 84 83 86 88 91 94 94 89 78 68 61 57 53 49 44 41 39 36 37 42 44 45 43 39 39 45 47 49 54 61 71 81 83 81 80 83 84 84
100 100 100 100 99 97 93 88 82 79 78 78 81 83 86 89 91 93 93 94 95 97 98 98 99 97 98 102 103 101 101 102 101 100 99 100 102 99 94 96 101 101 100 99 95 90 87 85 87 91 92 95 98 95 85 74 66 60 55 51 47 42 39 38 37 40 45 44 44 44 41 41 47 51 53 59 69 79 84 83 81 80 83 86 84
100 100 100 100 100 99 96 91 87 83 81 81 82 83 85 88 91 93 95 96 97 97 97 98 99 98 98 101 101 101 102 103 102 102 102 102 102 100 98 100 101 100 100 100 97 94 93 94 95 96 96 98 98 93 84 75 68 61 55 50 44 40 38 37 37 40 42 43 45 46 43 45 50 52 56 65 75 83 86 86 86 85 85 91 91
100 100 100 100 100 100 98 95 91 88 86 85 86 87 88 88 90 94 96 98 99 99 97 98 99 99 99 100 101 101 101 102 102 102 101 101 102 101 101 101 100 100 101 100 100 99 99 100 99 98 99 100 97 92 87 80 72 64 56 49 42 38 37 36 37 40 43 45 48 47 46 49 53 55 60 70 80 85 86 89 93 92 91 97 101
97 98 98 99 100 100 99 98 94 92 91 90 89 91 92 91 91 92 92 93 96 97 97 97 97 97 98 99 100 101 101 102 102 101 101 101 100 100 101 101 101 101 100 100 101 101 101 102 101 101 101 100 98 95 91 85 77 66 56 47 40 36 36 36 37 40 43 47 50 50 49 52 56 58 65 76 84 85 86 91 96 97 96 99 104
92 94 96 98 100 100 100 100 97 95 94 94 93 92 92 90 90 90 89 89 89 89 91 92 92 93 95 96 97 99 99 98 98 98 98 98 97 98 100 100 99 99 99 100 101 101 101 102 102 102 102 100 99 98 94 88 80 67 54 43 37 35 34 34 36 39 43 49 52 51 52 56 59 62 72 83 86 85 89 95 98 97 99 103 104
97 97 98 99 100 100 100 101 100 97 97 97 98 98 96 93 92 93 93 91 88 87 87 86 84 87 91 92 92 91 91 91 93 95 96 95 95 95 95 95 95 97 100 102 102 101 101 101 100 102 102 101 100 99 95 89 79 64 49 38 33 33 32 33 36 40 45 50 52 52 57 62 63 66 79 89 89 87 92 97 98 98 101 105 106
100 100 100 100 100 100 100 100 100 100 100 100 100 102 101 99 98 98 97 95 93 91 89 86 84 85 87 88 88 88 88 90 92 92 93 94 94 93 92 93 97 100 101 101 101 101 100 100 100 100 102 103 101 97 93 87 74 56 41 33 31 31 31 32 36 41 45 49 52 57 63 65 65 72 85 93 94 94 97 97 97 98 101 103 106
100 100 100 100 100 100 100 100 100 101 101 101 102 102 102 102 101 100 99 97 95 93 90 89 88 87 86 86 88 90 91 93 93 91 91 92 93 95 94 94 98 102 102 100 101 101 100 100 100 101 102 102 99 94 90 81 65 47 36 31 30 29 30 33 39 43 46 50 55 60 63 62 66 79 91 96 99 101 102 99 97 99 102 103 103
100 100 100 100 100 100 100 100 100 100 101 101 102 102 102 101 100 101 101 99 97 94 91 88 89 92 90 87 86 89 91 92 92 93 92 91 92 95 97 97 99 101 101 100 100 100 100 100 100 100 101 99 95 90 84 71 53 39 32 30 29 28 31 37 41 44 47 53 58 60 58 59 71 86 94 97 101 104 103 100 99 101 104 104 102
100 100 100 100 100 100 100 100 100 100 101 102 102 101 101 100 98 99 101 102 101 100 96 92 92 95 96 93 91 92 93 91 92 95 96 93 92 94 97 100 102 102 101 100 100 100 100 101 100 99 99 97 93 87 75 56 41 34 31 30 29 30 33 39 42 43 48 55 59 58 56 62 79 92 96 98 101 102 101 100 101 104 106 106 104
100 100 100 100 100 100 100 100 100 101 101 102 102 101 101 101 98 97 99 101 101 101 101 100 97 96 98 100 99 99 97 95 94 95 95 94 94 96 99 101 102 102 101 100 100 100 100 100 99 97 96 95 91 81 64 46 35 32 30 29 30 32 35 39 41 45 52 57 58 56 58 69 85 95 98 101 103 101 100 100 102 104 105 105 105
100 100 100 100 100 100 100 100 100 101 102 102 102 101 101 101 99 98 98 99 99 99 100 101 100 99 100 101 101 101 101 99 96 95 94 95 98 100 101 100 100 101 101 101 100 101 100 99 97 96 95 92 84 69 51 38 33 31 30 30 32 33 35 38 43 49 55 57 55 54 62 76 89 96 99 101 101 101 101 100 101 102 102 102 104
100 100 100 100 100 100 101 100 101 101 102 102 102 102 101 100 99 98 98 99 99 99 99 101 101 101 101 101 101 101 102 99 96 96 97 99 101 101 99 98 98 100 101 101 100 100 100 98 96 96 95 88 73 55 42 35 32 31 31 32 33 33 35 40 46 52 55 54 52 55 66 81 92 97 99 100 99 98 100 101 101 99 98 99 102
101 100 100 101 101 101 101 101 101 101 101 102 102 101 101 100 99 98 98 98 98 98 99 101 101 101 100 101 101 101 102 100 98 99 100 101 101 101 100 99 100 100 99 99 99 99 98 95 94 94 91 79 60 45 37 33 31 31 31 32 33 34 37 42 47 51 51 49 49 58 73 86 94 98 99 100 99 98 99 100 99 97 96 98 101
101 100 100 101 102 102 102 102 101 102 102 102 102 101 100 100 99 98 98 98 98 98 99 101 101 100 100 100 100 101 102 101 100 100 101 100 100 101 101 101 101 100 99 99 98 98 96 93 91 87 78 62 46 37 33 32 31 31 32 33 33 35 38 41 45 47 47 46 50 63 79 89 95 99 99 98 98 99 100 99 98 97 98 99 100
100 100 100 102 102 102 102 102 101 102 102 101 101 101 100 99 98 98 97 98 98 98 99 100 100 100 100 100 100 100 101 100 100 101 100 100 100 101 100 101 101 100 99 98 96 94 93 89 83 72 58 44 36 33 32 31 30 31 31 32 33 35 37 40 43 43 43 46 55 71 84 92 96 99 98 96 97 99 99 98 96 96 97 98 99
100 100 100 101 102 103 102 101 102 101 101 100 100 99 99 98 98 97 97 97 96 98 100 100 98 98 99 98 98 99 100 100 100 100 99 99 100 100 99 99 98 97 97 95 92 88 82 75 65 53 43 35 33 32 31 30 29 30 31 32 33 35 36 38 40 40 42 49 63 78 87 94 98 99 96 95 98 99 98 97 96 94 92 94 99
100 100 100 101 102 102 102 102 101 100 100 100 100 98 98 98 98 98 98 96 95 97 100 99 97 97 99 97 95 97 100 98 97 98 98 97 97 97 96 95 95 94 93 89 83 76 68 60 51 43 36 32 31 31 30 29 29 29 31 32 34 34 34 35 36 38 44 56 71 82 89 96 100 99 96 96 98 97 96 95 93 91 92 95 101
101 100 100 102 102 103 102 101 100 100 100 101 100 99 98 98 98 97 97 96 96 96 98 98 97 98 99 97 95 97 99 99 97 97 97 96 96 95 94 93 92 92 89 85 78 71 64 56 49 41 35 33 33 31 30 29 29 30 32 33 32 32 32 32 35 40 51 65 77 85 92 98 100 98 96 96 97 96 95 93 91 90 93 98 103
101 100 100 102 102 103 102 101 100 100 101 101 100 100 99 98 98 97 96 96 96 97 97 97 98 100 102 101 100 100 101 100 99 98 97 96 95 93 92 91 90 89 88 84 78 71 64 57 49 41 36 35 33 31 29 30 30 31 32 31 31 31 31 32 37 48 62 73 80 86 94 99 99 97 95 94 96 95 93 90 90 91 95 100 104
101 100 100 101 102 103 102 101 100 100 101 101 100 100 99 98 98 98 97 97 96 96 97 97 97 100 103 102 101 103 103 101 99 98 96 95 93 92 90 89 88 87 86 83 78 72 66 58 50 44 41 39 35 31 29 30 31 32 31 30 30 30 30 34 46 60 70 77 82 89 96 99 97 95 93 92 95 96 93 89 90 93 97 101 105
101 100 100 101 103 103 103 101 100 100 101 101 101 101 100 99 99 99 99 98 96 95 97 98 98 100 101 100 99 102 103 102 101 99 96 94 92 90 89 88 88 87 85 82 79 74 69 63 58 55 50 43 36 31 29 30 31 30 28 28 30 30 31 41 56 67 73 78 84 92 97 97 95 93 92 92 94 95 92 88 89 93 97 102 104
101 101 101 101 103 103 103 102 101 101 101 101 102 101 101 101 101 100 100 100 98 96 96 98 99 100 100 98 97 98 99 101 101 100 97 94 92 90 89 88 87 86 84 82 80 76 72 70 66 58 46 35 30 28 28 29 29 27 27 29 29 30 37 52 64 70 74 81 87 93 97 97 93 90 91 93 95 94 91 88 89 92 97 102 104
101 100 100 101 103 103 103 102 102 102 101 101 101 101 101 101 102 101 102 102 100 97 96 98 100 100 100 98 96 95 95 97 98 98 97 95 92 90 89 88 86 85 84 82 79 79 77 72 59 43 30 26 27 27 27 27 26 26 28 29 29 33 45 60 68 71 76 83 88 94 97 95 91 90 92 93 94 93 89 86 88 92 97 100 103
101 101 101 101 102 103 103 103 102 102 102 102 102 101 101 102 102 102 102 102 102 100 97 97 99 100 100 99 97 96 95 94 94 94 94 93 90 89 88 87 86 86 84 82 81 81 75 59 40 27 24 26 26 25 25 25 25 27 29 28 30 40 55 65 69 73 79 84 89 95 97 93 89 90 92 92 93 92 89 86 88 93 97 100 101
101 100 100 101 102 102 103 103 103 102 102 102 102 102 101 102 103 103 103 103 103 102 100 98 99 100 100 98 97 97 95 93 91 90 88 88 87 86 86 86 86 86 84 83 82 75 58 39 26 24 26 26 24 24 25 24 25 28 28 28 35 50 62 66 69 76 81 84 90 96 96 91 89 91 92 92 92 90 88 86 89 92 96 100 101
101 100 100 101 101 102 102 103 103 103 102 102 102 102 102 102 102 102 102 103 103 102 101 100 99 100 99 97 96 95 93 91 90 89 87 87 86 85 85 86 86 85 83 79 69 53 37 26 24 25 25 23 23 24 24 24 26 28 28 31 44 57 63 66 72 79 81 84 91 96 93 89 89 90 91 92 91 89 87 88 90 92 96 100 101
Wind_Speed
31 32 33 34 34 35 35 35 36 36 36 36 36 37 36 36 36 36 36 37 37 37 37 37 36 37 37 38 39 39 39 39 39 39 38 38 38 38 37 36 35 34 33 32 31 29 28 26 25 23 21 19 17 15 13 12 10 8 6 4 4 4 4 6 7 12 21 20 19 21 23 24 26 27 29 32 32 32 33 33 33 33 33 34 36
31 32 33 34 35 35 35 35 35 35 35 36 36 36 36 36 36 36 37 38 39 39 38 38 37 37 37 38 39 39 39 39 39 39 39 39 39 39 39 38 38 36 35 34 33 31 29 28 26 24 22 19 17 16 14 12 10 8 7 6 5 5 6 7 7 9 18 25 24 24 24 23 26 29 31 34 35 35 35 35 35 35 35 36 37
30 31 32 33 34 35 35 35 34 34 35 36 37 37 37 37 36 36 37 38 38 38 38 38 37 37 37 37 38 39 40 40 40 40 40 41 41 41 41 40 40 39 38 37 35 33 31 29 27 25 23 21 19 17 15 13 11 9 8 7 7 7 8 9 9 9 15 24 28 26 25 27 31 32 33 34 34 35 37 37 36 36 36 36 37
27 29 30 32 33 33 34 34 34 35 36 37 38 38 38 37 36 36 36 36 37 37 37 37 36 37 37 38 38 39 40 40 40 40 41 41 42 42 42 41 41 41 40 38 36 35 33 31 29 26 24 22 20 18 17 15 12 10 9 8 8 8 9 10 12 13 14 20 28 31 30 32 34 34 34 35 34 35 38 37 37 37 37 36 37
25 27 29 30 31 32 33 33 34 35 36 37 38 38 37 36 36 36 35 35 36 36 36 36 36 37 38 38 39 39 40 40 41 41 41 41 41 42 42 42 42 40 39 37 36 35 34 32 30 27 26 24 22 20 18 16 13 12 11 10 9 10 11 12 13 15 17 22 29 34 35 34 35 34 32 32 36 39 39 37 36 37 37 37 39
23 25 27 29 30 32 33 33 35 36 36 37 37 37 37 36 36 35 35 35 35 36 36 37 37 38 38 38 38 39 39 40 41 41 42 41 41 41 41 41 40 39 38 36 35 34 33 31 29 27 26 25 23 21 19 17 15 13 12 11 11 11 13 14 14 16 19 24 28 32 35 35 35 35 32 31 34 38 39 39 37 35 36 39 42
22 24 26 28 30 32 33 34 35 36 36 37 36 36 36 35 35 35 35 35 35 36 36 37 38 38 38 38 38 38 39 39 40 41 41 41 41 40 40 39 38 38 37 36 34 33 31 29 28 27 26 24 22 20 19 17 16 15 13 12 12 13 14 15 16 17 20 24 27 30 32 32 32 33 33 32 32 32 31 34 37 37 35 36 41
21 23 25 28 31 32 33 34 34 35 35 35 35 35 35 35 35 35 35 35 36 36 37 37 37 37 37 38 38 38 38 39 40 40 41 41 41 40 40 39 38 38 37 36 34 32 30 29 28 27 25 23 20 19 19 18 16 16 15 14 14 15 16 16 17 18 20 23 27 28 28 30 31 30 31 30 28 27 26 27 33 37 36 36 37
20 22 25 28 30 31 31 32 32 33 33 33 34 34 34 35 35 35 35 36 36 36 36 35 35 35 36 37 38 38 39 39 40 41 41 41 41 41 40 39 39 39 38 37 35 33 31 30 28 27 25 22 20 20 19 18 17 17 15 15 16 17 17 17 18 19 19 23 27 26 23 26 28 27 27 26 24 27 29 28 31 33 35 38 36
19 21 24 27 29 29 29 29 30 31 32 33 33 34 34 34 34 35 36 36 36 35 35 34 35 35 35 36 37 38 39 39 39 40 40 40 40 40 40 40 40 40 39 38 36 35 32 31 30 28 26 23 22 22 21 20 19 17 16 16 17 17 18 19 19 19 20 23 26 23 18 22 27 26 25 27 26 28 29 28 29 32 31 33 34
19 21 24 26 26 26 27 27 29 30 31 32 32 33 33 33 34 34 34 35 35 34 34 35 35 36 37 38 38 39 39 39 38 39 39 39 39 39 40 40 40 40 40 39 38 36 34 33 31 30 27 26 25 24 22 21 20 18 17 17 17 18 19 20 20 20 21 23 25 22 18 22 28 27 26 28 27 26 28 27 27 29 26 23 26
19 21 23 23 24 24 25 26 28 29 30 31 32 32 32 32 32 33 33 34 34 34 34 35 35 36 37 37 38 39 39 38 38 39 38 38 39 40 40 41 41 42 41 40 39 37 36 35 33 31 29 27 26 24 23 22 20 19 19 18 19 19 20 21 21 21 22 23 24 24 22 23 27 28 27 26 26 27 28 28 25 25 26 24 24
20 21 22 22 22 23 24 26 27 29 29 30 30 30 30 31 32 33 33 33 33 33 34 34 34 35 36 37 38 39 38 38 38 39 39 38 38 40 41 41 43 43 43 41 39 38 38 36 33 31 30 28 27 25 24 22 21 20 19 19 20 21 21 23 22 22 23 23 25 27 26 24 26 28 26 24 27 29 28 28 28 27 27 27 28
21 22 22 21 21 22 23 25 27 28 28 28 29 29 30 31 31 32 32 31 32 33 34 34 34 35 35 37 39 39 38 38 38 38 39 37 36 38 41 42 43 44 43 41 40 39 38 35 33 32 31 30 28 26 25 23 22 21 20 21 22 22 22 24 22 22 23 24 27 29 27 24 26 28 26 23 25 28 27 29 30 29 30 31 32
21 22 22 21 21 21 22 24 26 27 27 27 28 29 30 30 31 31 31 31 32 33 33 33 33 34 35 36 37 38 38 38 38 38 39 36 34 35 39 42 43 43 42 41 41 39 36 35 33 32 31 30 29 27 25 23 22 21 21 22 23 22 23 24 22 22 23 23 26 27 25 24 24 25 24 22 23 25 26 27 29 31 34 35 33
21 21 22 22 21 21 22 23 24 26 26 26 28 29 30 31 31 30 30 31 31 31 31 32 32 33 34 34 35 37 38 38 38 37 38 37 34 33 36 40 42 42 41 40 39 37 36 36 34 32 31 31 29 26 23 22 22 22 23 23 23 23 25 24 21 21 22 22 23 23 22 22 22 22 22 22 23 24 25 27 29 29 29 30 29
21 22 22 22 22 21 21 22 24 25 25 26 28 30 30 31 31 30 30 30 30 31 31 31 31 31 32 33 34 36 37 38 38 38 37 36 34 32 34 37 40 41 40 38 38 37 37 37 35 33 33 31 27 24 23 23 22 23 24 24 22 24 26 23 21 21 21 20 20 20 20 21 21 21 21 20 21 21 22 26 28 25 22 20 20
23 22 22 22 22 21 21 22 24 25 26 27 29 30 30 31 30 30 30 30 30 31 31 30 30 29 30 32 34 36 37 37 38 38 37 37 35 32 33 35 38 41 40 37 36 37 38 37 36 34 32 29 26 24 23 23 23 24 24 23 22 25 26 23 21 19 18 18 19 20 21 21 20 20 18 18 17 17 19 23 24 22 20 17 16
26 25 25 24 22 21 21 22 23 25 27 29 30 31 30 30 29 29 29 30 30 29 28 28 28 28 28 30 32 34 36 36 37 37 37 37 35 32 32 33 35 38 39 37 35 36 36 36 35 33 30 28 26 24 22 23 23 24 23 21 23 27 25 21 19 17 17 19 21 22 22 21 19 19 18 17 16 15 16 19 19 19 22 22 19
29 28 27 25 23 21 20 21 23 25 27 29 29 30 29 28 28 27 28 29 28 28 27 27 27 27 27 28 30 33 34 35 36 37 37 38 36 33 32 32 32 35 38 39 37 35 32 32 33 31 29 28 27 24 22 23 23 23 21 22 25 25 22 18 17 17 19 22 23 23 23 20 18 18 18 17 17 16 16 17 17 18 20 24 23
29 29 27 25 23 22 21 21 23 24 26 27 27 28 28 27 27 27 27 27 27 26 26 26 25 25 26 27 28 31 33 34 35 36 37 37 37 35 34 33 34 35 36 37 37 34 30 29 31 31 30 29 27 24 23 23 23 22 22 24 24 22 20 20 19 20 21 23 24 24 23 20 19 18 18 18 17 17 17 17 18 18 19 22 25
29 29 27 26 24 23 22 22 22 23 24 25 25 27 26 26 26 26 26 26 26 26 25 24 23 23 24 26 27 29 31 32 33 34 36 37 37 36 36 36 36 33 31 31 32 31 30 30 31 31 31 30 27 24 23 22 21 21 23 24 22 20 20 20 20 21 22 23 24 24 22 20 20 19 19 19 18 18 19 19 18 18 19 21 23
28 28 28 27 26 24 23 22 21 21 22 23 25 26 25 24 25 25 25 25 25 24 23 22 22 22 22 23 25 26 28 30 32 33 34 36 36 36 38 38 35 31 30 30 29 29 29 30 31 31 30 27 25 24 22 21 20 21 22 21 20 19 19 19 20 21 22 23 23 24 22 20 20 20 19 19 20 20 20 20 19 19 20 21 22
27 28 28 28 27 25 23 22 21 21 22 22 23 24 24 23 24 24 25 25 24 23 22 21 20 20 20 21 23 25 26 29 31 33 34 35 35 36 39 37 32 29 29 29 27 27 29 30 31 30 27 24 23 22 20 19 20 20 20 19 18 18 18 19 20 20 21 23 23 22 22 20 18 20 20 20 21 21 20 20 20 20 21 22 24
28 29 29 28 27 25 23 22 21 21 21 22 23 24 24 23 23 23 24 24 23 21 20 20 20 20 20 20 23 25 26 27 29 31 33 33 34 35 38 37 31 27 27 27 26 26 28 28 28 27 24 22 21 19 19 19 19 18 18 17 18 18 18 18 19 19 21 22 21 21 21 19 18 19 20 20 21 21 20 20 21 21 21 22 25
29 30 29 28 27 25 22 22 21 21 21 23 24 25 25 25 25 24 25 24 21 20 20 19 20 20 19 19 23 25 25 25 27 29 30 32 33 33 35 35 31 26 24 25 26 25 25 24 23 21 20 20 19 18 19 19 18 17 17 18 18 18 18 18 18 19 20 20 20 20 19 18 18 19 19 20 21 20 19 20 22 23 23 23 27
29 30 29 29 27 25 23 22 22 21 21 22 24 24 25 26 25 25 26 24 20 18 19 19 19 20 19 19 22 23 23 24 25 26 28 30 31 31 31 32 31 27 24 24 25 24 23 21 19 18 18 18 17 18 19 19 18 17 18 19 18 18 18 18 17 18 19 18 18 18 18 18 19 19 19 20 21 19 18 19 22 23 23 24 26
29 29 29 28 27 25 24 23 22 22 22 23 24 25 25 26 27 28 29 28 24 21 21 22 22 23 21 20 20 20 21 24 26 27 28 29 30 30 29 29 29 28 27 26 25 24 22 20 19 18 18 18 18 19 20 20 19 20 20 19 19 18 17 16 16 17 17 16 16 17 18 18 19 19 19 20 20 19 18 18 20 22 23 22 22
30 29 28 27 26 25 24 23 22 22 22 23 24 25 26 27 29 28 28 29 28 26 25 25 26 26 23 21 21 21 22 25 29 30 29 30 31 31 30 29 29 30 30 29 26 23 21 20 19 19 19 20 21 21 21 21 21 21 21 19 18 17 16 15 16 16 15 14 16 17 17 18 19 18 18 20 20 19 18 19 19 21 22 20 21
29 28 26 25 25 24 23 22 21 20 21 21 21 22 23 25 27 27 26 26 28 27 26 25 25 25 23 22 24 25 26 27 28 29 30 31 31 31 30 30 30 30 29 27 24 23 21 20 20 21 21 21 22 22 22 22 21 21 20 18 17 16 15 15 15 14 13 14 15 16 16 17 18 18 18 19 20 20 19 19 19 19 20 20 22
27 26 26 25 25 24 23 21 19 18 19 20 20 19 19 19 22 24 24 23 23 25 26 25 24 23 22 22 22 24 24 21 21 24 29 31 31 31 30 30 29 28 26 25 24 22 21 21 21 22 22 21 22 23 23 21 21 20 19 17 15 14 14 14 14 13 13 14 15 15 16 16 17 18 17 18 19 20 19 19 19 19 19 20 21
28 26 26 26 26 25 23 20 17 16 17 18 19 19 17 15 15 18 20 21 20 21 23 24 23 22 21 20 20 21 21 19 18 20 24 28 31 31 30 29 28 26 25 24 23 22 21 21 21 21 21 22 23 24 23 21 21 20 18 16 15 14 13 13 12 13 14 14 14 15 15 16 16 17 17 17 18 19 20 20 19 19 20 21 21
29 27 27 26 25 24 22 19 16 15 16 17 18 18 18 15 12 12 14 16 17 18 20 22 22 21 20 20 20 20 20 20 21 21 20 23 28 30 31 30 28 25 24 24 23 22 22 22 22 21 22 23 24 23 22 21 20 18 17 15 14 13 12 12 13 13 14 14 14 15 15 15 16 16 16 16 16 18 19 20 19 19 20 21 22
28 27 27 26 25 24 21 18 16 15 16 16 17 17 17 16 14 13 14 14 14 14 16 19 20 19 18 18 19 19 19 20 21 22 21 20 23 27 30 29 27 25 24 24 24 23 22 22 22 23 24 24 23 22 21 20 19 17 15 14 14 12 11 12 14 14 14 14 14 15 15 15 15 15 16 16 16 17 19 19 19 20 19 20 22
27 26 26 25 24 22 20 17 15 15 15 15 16 15 15 15 14 14 15 16 16 14 15 17 19 19 18 17 17 18 18 18 19 20 20 20 21 24 27 26 24 24 25 25 25 23 22 22 24 25 25 25 24 22 21 19 17 15 14 14 13 12 12 13 14 14 14 14 14 14 14 15 14 14 15 16 16 17 19 19 19 19 20 20 21
27 25 24 24 23 21 18 15 13 13 13 13 14 13 13 13 13 13 14 15 14 13 13 15 17 18 19 18 17 18 18 17 17 18 19 19 21 24 26 25 23 24 26 27 26 25 25 25 26 26 25 24 23 21 20 17 15 14 13 13 13 12 12 13 13 13 13 13 14 14 14 14 14 14 14 15 16 16 17 19 20 20 20 20 20
25 24 24 24 23 19 15 12 10 10 10 10 11 11 11 12 13 12 12 12 12 12 12 13 14 16 18 18 17 18 18 17 16 17 17 18 21 25 27 27 26 25 26 27 27 27 28 28 28 27 26 24 22 19 17 15 13 13 13 13 13 13 13 13 13 13 13 13 14 14 14 14 14 13 13 15 16 16 17 18 19 20 20 19 19
24 24 24 23 21 16 12 9 7 7 7 8 9 10 10 11 11 12 11 11 11 11 12 13 14 16 18 19 18 18 18 17 17 18 18 20 23 26 26 26 25 25 25 27 28 29 29 29 29 28 26 23 20 17 15 13 13 13 13 13 13 13 13 14 13 13 14 14 13 13 14 14 13 12 13 14 15 16 17 18 18 20 21 20 19
24 24 23 21 16 12 9 7 5 5 6 7 8 9 9 10 10 10 10 11 11 11 11 13 13 15 17 18 19 19 19 18 18 18 19 22 24 26 24 23 24 24 24 25 27 28 29 29 28 26 24 21 17 15 13 12 13 13 13 13 13 14 14 14 14 13 14 14 14 13 14 13 12 12 13 14 14 16 17 17 17 18 20 21 21
25 24 22 19 14 10 8 6 5 5 5 6 7 8 9 9 9 10 10 10 10 10 11 12 12 13 15 19 21 21 20 18 17 18 20 22 23 24 23 23 24 24 24 25 26 27 27 27 25 23 20 17 14 12 12 13 13 14 13 13 14 14 14 13 14 14 14 14 14 13 13 12 12 12 12 13 14 15 16 17 18 18 19 20 22
24 23 21 18 13 10 7 5 4 5 5 6 7 8 8 9 9 9 9 10 10 9 10 11 12 13 15 19 22 22 20 17 17 18 20 22 23 23 23 23 23 24 25 25 24 24 23 23 21 19 16 13 12 11 12 14 14 14 14 13 14 14 14 13 14 14 14 13 13 13 12 12 11 12 13 13 13 14 14 16 17 17 18 20 21
23 22 20 17 13 9 6 5 5 5 5 6 7 7 8 8 8 8 9 9 9 9 9 11 11 12 15 18 21 22 19 17 18 19 20 21 22 23 23 24 23 24 24 23 22 22 21 19 18 15 13 11 11 12 13 14 14 13 13 13 13 14 14 14 14 13 13 13 13 12 12 11 11 12 13 13 13 13 14 15 16 17 18 19 20
22 20 18 15 12 9 7 5 5 5 5 6 6 7 7 7 8 9 8 9 9 9 9 11 11 12 15 18 21 21 19 18 18 20 20 21 22 23 23 24 23 23 22 22 21 20 19 18 16 13 12 11 11 12 13 13 12 12 12 12 13 13 13 13 13 13 13 13 12 11 11 11 11 12 12 12 12 13 14 15 16 17 17 19 20
20 19 17 14 11 9 7 5 5 5 6 5 5 6 7 7 8 8 8 8 9 9 10 11 12 12 14 17 20 22 20 18 18 19 20 20 22 22 22 23 23 22 21 21 20 19 18 17 15 13 12 12 12 13 13 13 12 12 12 12 12 13 13 13 12 12 12 12 11 11 11 11 11 11 12 11 11 12 14 14 15 16 17 18 20
19 17 16 14 11 9 7 5 4 5 6 6 5 6 7 7 8 8 8 9 9 9 10 11 12 13 15 17 20 22 20 18 17 19 20 21 22 22 22 22 22 21 21 20 19 18 17 15 14 13 13 13 13 14 13 13 13 12 11 12 12 12 12 11 11 11 11 11 10 10 10 10 11 11 11 10 10 12 13 14 15 16 17 19 20
18 16 15 13 10 9 8 6 5 5 5 6 6 6 7 8 8 8 8 9 9 10 10 11 13 14 15 17 20 21 20 19 18 19 20 21 21 22 22 21 21 20 20 19 18 18 16 15 14 14 14 14 14 14 14 13 13 12 12 12 12 12 11 11 10 10 10 10 10 10 10 10 10 10 10 10 10 11 13 14 14 15 16 18 20
16 15 14 13 11 9 8 7 5 5 5 6 6 6 7 8 9 9 8 9 10 10 11 11 13 15 16 17 19 21 21 20 19 19 20 21 21 20 20 20 20 19 19 18 17 16 15 14 13 13 14 14 14 13 13 13 12 12 12 12 11 11 11 10 9 9 9 9 10 10 10 10 10 9 9 10 10 11 12 13 13 14 15 17 19
15 14 13 12 11 9 8 7 6 6 6 6 7 7 7 8 8 9 9 9 10 11 12 12 12 14 16 17 18 20 21 21 21 20 21 21 21 20 20 20 19 19 18 17 16 15 13 12 12 13 13 13 13 12 12 12 12 11 12 11 10 10 10 9 9 9 9 9 10 10 10 10 9 8 9 9 9 11 12 13 13 14 16 16 18
16 14 13 12 11 10 8 8 7 7 7 6 7 7 8 8 9 8 9 9 10 11 12 12 12 14 16 16 17 18 19 20 21 22 22 22 21 21 20 20 19 19 18 17 15 13 12 11 12 12 13 12 12 12 12 12 11 11 11 10 10 9 9 8 8 9 9 9 10 10 10 9 9 8 8 9 9 10 12 12 13 14 15 16 18
16 15 13 13 12 11 10 9 8 8 7 7 7 8 8 8 9 8 8 9 10 11 12 13 13 14 15 16 16 17 18 19 20 21 21 21 21 20 20 19 19 19 17 15 13 12 12 12 13 13 13 12 12 12 12 11 11 10 10 9 9 9 8 8 8 9 9 9 10 10 9 9 9 8 8 9 9 10 11 12 12 14 15 17 18
17 16 14 13 12 11 11 10 9 8 8 8 8 8 8 8 9 9 9 10 11 11 12 12 13 14 15 16 16 17 18 18 19 19 19 18 18 18 18 18 17 16 16 14 13 13 13 13 13 13 13 12 12 12 11 10 10 10 9 9 8 8 8 8 8 9 9 9 10 10 9 9 8 8 8 8 9 10 11 11 12 14 15 16 17
Wind_Direction
239 238 237 235 234 235 235 236 235 234 234 234 235 237 239 239 239 238 237 236 237 237 237 237 237 236 233 231 230 229 227 226 224 223 222 221 221 220 218 214 211 209 207 204 202 202 203 202 200 200 198 197 196 194 194 194 192 192 194 205 213 222 235 217 225 276 294 299 299 302 308 313 317 323 328 329 331 334 332 333 335 334 334 333 333
242 241 240 237 236 237 237 236 236 234 234 234 235 237 239 240 239 238 237 238 239 238 239 238 237 236 233 232 232 230 229 228 226 224 222 221 220 218 217 213 210 208 206 205 203 201 201 201 200 198 197 197 197 196 197 197 197 200 203 210 226 233 242 246 239 264 292 301 304 307 311 313 315 321 325 327 330 332 331 332 335 333 332 332 331
246 244 242 240 239 239 237 236 235 234 233 234 235 237 239 240 239 238 239 240 239 239 239 238 236 235 234 233 232 231 230 228 227 226 224 221 220 218 216 213 211 209 207 206 204 202 201 201 200 199 197 197 197 198 200 201 202 206 211 217 229 239 244 252 253 255 280 297 305 307 308 311 314 320 323 325 328 330 329 331 333 331 330 330 330
249 246 243 242 242 239 237 236 235 234 233 234 236 237 238 238 238 238 238 238 238 238 239 237 235 234 233 233 232 231 230 229 228 227 226 224 221 219 217 214 212 212 210 209 206 204 203 201 200 200 199 199 199 200 200 202 205 208 215 225 231 241 249 251 257 262 269 285 298 303 305 308 314 319 322 324 328 328 327 329 330 328 327 328 328
253 248 245 244 242 239 238 236 234 234 234 235 237 238 237 236 237 237 237 236 236 236 235 235 234 234 234 234 233 232 231 230 229 228 227 225 223 222 219 215 213 213 212 211 210 208 207 205 203 202 201 201 201 202 203 204 208 210 217 228 234 240 250 252 258 264 265 272 287 298 303 307 313 318 322 324 326 327 326 327 327 325 325 325 326
258 252 248 245 243 240 238 236 235 236 236 236 237 237 236 235 235 235 236 235 235 234 232 232 232 233 234 235 234 233 233 231 230 229 228 226 224 222 219 216 213 212 212 213 212 212 210 208 207 205 204 205 204 204 206 205 209 215 218 226 235 240 246 253 257 261 266 271 279 288 298 306 312 316 320 323 324 324 325 325 324 322 323 324 325
260 254 249 246 243 242 240 239 238 238 238 238 238 237 236 235 234 235 236 235 234 233 232 231 232 232 233 232 232 233 232 231 230 230 228 226 223 221 218 215 213 212 212 213 213 213 212 210 210 209 208 209 208 207 209 209 213 219 221 225 234 240 245 251 255 258 265 272 275 279 289 300 306 309 315 320 321 321 323 322 319 319 320 321 322
264 258 252 247 244 243 243 242 241 240 239 239 237 236 236 235 235 236 234 234 234 234 233 232 232 231 230 230 231 231 230 230 229 229 228 225 222 220 217 214 212 212 212 212 212 211 211 210 211 212 211 210 210 211 215 217 218 219 222 225 232 239 245 249 253 258 262 269 273 277 285 294 300 304 310 316 318 318 319 316 310 312 317 318 318
268 261 254 250 249 248 246 244 242 241 239 237 236 236 235 235 234 234 233 233 234 234 234 232 230 229 228 229 231 230 229 230 230 230 228 225 222 219 217 214 213 212 211 210 210 210 210 210 211 213 213 210 209 213 217 222 225 226 226 228 233 239 244 247 250 255 260 265 271 276 283 290 296 301 306 310 311 311 313 312 305 307 315 317 314
271 264 258 257 256 253 249 245 243 241 238 237 236 235 234 234 232 231 232 232 232 232 232 230 228 228 228 229 230 229 230 231 232 231 229 226 224 221 217 215 213 213 212 209 209 209 208 209 211 213 213 211 211 214 217 221 227 231 233 233 237 241 243 247 250 252 256 261 268 274 278 283 291 296 299 303 307 309 311 310 307 311 319 319 316
275 268 266 266 262 256 251 247 243 241 239 237 236 234 234 232 231 230 230 230 230 230 229 228 227 228 230 231 230 230 231 232 232 231 229 227 225 222 219 216 213 213 213 211 210 209 208 209 212 212 213 213 214 216 219 223 227 231 235 237 242 246 247 249 251 253 255 259 266 271 268 275 290 298 298 302 308 310 309 307 307 313 319 317 315
282 277 274 271 265 258 253 248 244 241 239 237 236 234 233 231 229 228 227 228 228 227 226 227 226 228 231 231 230 231 232 233 231 229 227 225 225 224 221 218 215 213 214 214 214 212 211 211 211 212 214 216 217 218 220 224 228 231 236 241 245 249 251 253 256 258 258 260 265 270 269 274 288 296 300 304 309 309 306 305 306 309 309 306 302
287 283 281 274 267 261 254 249 245 242 240 238 237 234 231 229 228 227 227 227 227 225 226 226 226 228 228 228 229 231 232 232 230 228 227 224 223 224 222 219 218 216 215 216 215 215 215 213 211 213 216 218 220 221 222 225 228 232 237 243 246 250 254 257 260 263 263 263 265 270 276 280 286 296 304 307 307 305 302 303 306 306 302 298 294
289 286 284 279 272 264 255 249 245 243 242 239 237 234 231 230 229 229 227 226 225 225 226 226 226 228 228 228 231 232 231 230 229 228 228 222 218 222 223 220 220 220 218 218 217 217 217 216 215 215 217 219 221 221 222 224 228 232 237 243 247 252 257 260 264 266 266 265 266 273 284 288 289 297 305 306 303 301 300 302 306 304 297 295 294
291 288 285 282 276 268 258 251 246 244 241 238 236 234 232 231 230 229 227 226 226 226 226 226 227 228 228 229 231 230 229 230 228 228 228 222 214 218 223 220 219 220 220 220 220 219 219 218 219 220 220 222 223 223 223 226 230 235 240 245 250 255 259 262 268 271 271 271 272 278 287 292 294 300 308 312 308 301 300 300 300 299 299 300 300
291 288 285 284 280 273 264 255 249 245 240 237 235 233 232 232 231 229 227 227 228 228 228 228 228 229 229 228 228 228 229 230 228 227 228 223 212 213 220 220 218 219 219 220 220 220 220 221 221 222 223 225 225 225 226 230 233 238 243 247 251 257 262 266 271 273 275 278 279 283 290 296 300 302 303 304 299 296 298 297 297 302 305 304 304
296 292 288 287 284 278 269 259 252 247 240 236 235 234 233 233 231 228 226 225 226 227 228 229 229 229 230 228 227 228 229 229 228 226 227 223 212 209 216 218 216 218 218 219 220 220 221 223 223 222 224 226 226 225 226 230 234 237 243 247 253 259 264 269 274 276 279 282 282 286 292 295 294 291 287 285 285 291 298 296 299 307 307 303 305
308 303 298 296 291 282 273 263 255 248 242 238 238 237 236 234 231 229 226 225 226 228 229 230 230 229 230 229 229 229 229 227 227 226 226 223 213 208 213 214 214 217 218 217 219 220 222 224 224 223 226 227 227 226 226 229 233 236 242 248 255 261 266 272 278 281 284 285 286 289 292 293 293 291 290 291 294 298 296 293 300 306 298 292 298
317 313 309 306 298 288 277 266 257 250 245 243 242 240 238 236 233 230 228 227 228 229 228 228 229 229 230 230 230 229 227 225 225 225 225 222 214 208 210 212 213 217 218 216 217 220 222 224 223 223 227 229 229 227 227 229 233 237 242 248 255 261 269 276 281 285 286 286 288 290 292 294 295 296 298 300 300 299 294 293 301 302 293 292 297
320 318 315 311 304 294 283 270 261 254 249 248 246 243 240 237 232 229 228 227 228 229 228 227 228 229 229 229 228 226 224 222 222 224 224 221 215 208 209 212 212 215 217 216 216 218 219 221 222 223 226 229 229 227 227 229 234 239 243 248 254 262 272 278 280 285 288 287 289 292 293 294 297 298 300 302 301 301 300 298 300 299 295 295 296
320 319 317 314 307 298 289 277 268 261 256 252 248 244 240 236 232 228 227 225 225 226 226 226 226 227 228 228 227 225 223 221 221 222 222 220 215 208 209 215 216 215 216 215 216 216 215 218 221 223 225 228 228 226 226 229 235 241 246 250 257 266 274 277 280 284 286 288 291 293 293 296 299 301 302 304 305 305 304 302 301 298 294 293 294
320 319 317 314 308 300 292 282 274 266 259 252 246 243 240 235 231 228 225 222 222 222 223 223 222 223 225 226 225 224 222 220 219 220 220 219 215 209 210 217 220 216 214 213 215 215 216 219 223 225 226 228 228 227 227 230 236 243 248 253 260 266 270 274 280 283 286 290 292 292 294 299 303 305 306 307 309 309 307 306 303 297 291 288 288
320 319 317 314 308 301 293 285 276 267 259 251 244 241 237 232 228 225 222 219 218 218 218 218 218 219 221 223 223 222 220 219 218 219 219 218 215 212 213 218 220 217 214 214 214 214 217 221 226 229 230 229 228 229 229 232 237 242 248 254 259 263 268 272 278 282 286 289 289 288 294 301 304 306 309 310 310 310 309 307 304 298 294 290 286
321 319 318 315 309 302 294 285 276 266 257 249 241 236 233 228 223 220 218 216 213 213 214 212 212 215 217 218 218 217 216 217 217 218 219 216 213 215 218 219 220 219 217 216 215 216 219 224 227 230 230 227 228 231 232 234 237 240 245 252 255 260 265 271 277 283 284 283 283 286 294 301 304 306 309 310 309 309 309 307 304 300 298 295 294
320 319 317 314 310 304 295 285 275 265 255 246 236 231 226 221 216 215 214 212 210 209 209 207 209 213 214 213 214 213 212 213 214 216 218 216 214 218 221 220 219 219 217 215 218 220 223 227 229 231 230 227 228 232 235 236 239 241 245 250 255 261 267 272 277 279 277 276 279 285 293 301 304 305 306 307 306 308 309 308 306 306 305 303 302
318 317 315 313 311 305 295 285 275 264 253 244 236 231 225 218 213 211 209 208 208 208 206 205 207 211 214 214 213 211 208 209 212 214 215 214 214 217 219 218 217 218 216 214 218 221 223 227 229 230 230 229 230 234 238 241 242 244 248 254 259 264 270 274 275 273 271 273 279 285 293 300 302 302 304 304 305 310 313 312 310 311 313 312 308
319 317 315 313 310 303 294 285 274 262 251 242 234 229 225 219 213 208 206 203 203 205 206 205 205 208 212 214 212 209 206 207 209 210 210 210 211 213 215 215 215 215 213 213 216 220 223 225 228 229 230 231 234 239 243 245 246 249 253 258 263 268 272 274 271 268 268 273 280 286 293 298 299 301 303 304 306 312 315 314 311 312 315 315 308
324 318 314 311 307 302 294 286 274 261 251 241 232 225 221 217 214 213 212 208 203 202 203 205 207 209 211 211 207 204 205 208 209 208 207 206 207 209 211 211 210 210 212 213 216 221 225 226 228 230 233 236 240 243 246 248 251 255 258 262 266 270 271 269 264 263 267 273 279 285 292 296 297 300 304 306 309 314 316 314 311 310 314 315 308
324 318 313 308 304 300 294 285 275 262 250 242 234 230 227 223 221 221 221 218 216 213 210 211 215 214 212 211 205 200 205 213 214 212 209 207 207 207 207 206 206 209 213 214 215 217 221 224 227 230 234 239 241 245 248 251 254 258 260 263 266 268 266 263 261 263 268 272 277 283 291 295 297 301 305 307 309 313 315 313 311 312 314 312 306
323 318 314 308 303 299 292 285 276 262 247 238 231 228 230 230 227 226 226 226 226 224 222 223 225 221 217 217 215 213 216 221 219 215 213 211 210 208 207 207 207 209 211 212 212 213 215 219 225 229 233 237 240 244 248 251 255 259 261 263 264 264 263 261 263 266 268 271 276 284 290 292 296 302 306 306 307 311 313 312 311 312 313 310 305
320 315 313 309 304 300 293 285 275 258 243 233 226 220 221 226 228 229 230 230 229 227 227 229 231 228 224 222 221 221 223 225 224 219 216 215 213 210 209 208 207 207 207 206 205 207 211 215 221 228 231 234 239 244 248 251 256 259 261 262 263 262 263 264 264 265 268 273 279 285 287 290 296 302 303 303 305 308 309 311 314 314 313 311 306
317 312 310 309 307 304 296 285 272 253 236 227 221 217 213 213 218 224 228 231 230 229 228 227 228 231 232 229 224 220 219 222 226 225 220 217 216 212 209 207 206 205 206 205 202 204 209 214 220 226 230 234 240 245 249 254 257 259 260 262 263 265 267 266 264 265 270 276 280 284 287 292 296 299 299 300 301 303 306 311 315 317 316 314 310
316 311 310 309 309 307 299 286 268 248 232 222 216 212 209 205 202 204 212 222 229 231 230 229 228 228 231 232 228 223 221 222 226 226 221 217 216 213 210 208 206 204 202 201 203 207 212 216 222 227 231 237 243 247 252 257 258 259 261 263 266 270 270 265 264 268 273 277 281 285 289 294 295 295 296 297 297 300 305 310 315 317 317 315 313
317 313 312 312 311 308 301 287 268 249 236 225 216 212 209 208 201 190 187 193 205 216 222 226 226 223 222 225 225 224 223 224 226 226 222 216 214 213 210 207 206 206 206 206 209 212 214 218 225 230 234 239 244 249 254 257 258 258 261 265 269 271 265 261 264 270 275 277 280 285 290 293 293 292 293 296 297 300 304 310 315 317 316 314 314
321 318 317 317 315 310 302 289 269 251 238 227 218 213 210 206 202 195 190 188 190 196 204 212 217 216 214 215 217 218 220 221 222 223 221 215 210 207 202 198 198 203 209 213 216 218 220 223 228 233 237 240 244 249 254 256 258 259 263 269 272 268 262 261 265 270 274 276 280 286 289 290 290 290 290 292 296 300 305 311 315 314 314 314 314
324 322 321 322 320 315 306 291 270 253 241 229 220 213 208 203 200 199 197 194 194 195 197 203 209 211 212 214 214 213 214 215 216 216 216 212 204 196 190 189 192 199 206 213 218 221 224 228 232 235 239 242 246 252 254 255 256 260 266 270 271 267 263 265 268 271 273 277 282 286 288 288 289 289 288 289 293 298 305 310 312 312 314 315 313
326 326 325 324 322 317 308 293 273 255 241 229 217 207 203 200 198 197 197 195 196 196 194 195 197 199 204 209 210 209 210 212 212 213 211 206 197 192 190 192 195 199 205 211 216 220 224 228 232 235 239 243 247 251 253 253 255 262 268 270 269 268 266 267 269 271 274 280 284 286 287 287 288 286 285 289 296 301 305 309 311 312 314 316 314
329 329 327 325 322 317 308 295 277 250 228 218 210 201 197 195 195 195 196 195 194 193 191 189 188 189 194 198 201 203 205 204 202 202 199 194 191 192 194 196 198 201 206 212 215 218 223 228 231 234 238 243 247 249 250 252 257 265 269 269 266 265 266 267 269 272 277 283 285 285 286 286 285 285 286 289 295 302 306 309 312 313 315 317 316
334 332 330 328 325 318 307 296 275 236 212 207 201 195 192 191 191 194 195 193 192 192 189 187 187 189 189 188 189 191 193 191 188 186 184 185 190 193 195 197 200 204 210 214 217 220 224 228 231 235 238 242 245 246 248 255 263 267 267 265 263 263 265 268 272 275 280 284 285 285 285 285 284 285 286 289 296 302 305 308 311 313 314 314 314
334 333 331 330 328 321 310 297 272 235 213 204 199 194 192 192 194 196 194 191 190 192 189 186 186 188 187 184 184 185 184 182 181 180 179 183 190 193 194 198 203 207 213 217 220 224 227 229 232 236 239 241 243 246 252 260 265 265 262 261 262 265 268 271 275 278 281 283 284 283 282 284 285 285 286 291 297 301 303 307 311 313 312 312 313
334 332 330 331 328 320 311 297 272 245 222 211 205 199 197 199 200 198 196 193 191 190 189 187 186 187 188 189 189 188 185 181 180 182 184 188 191 194 198 203 208 213 217 221 224 227 228 230 234 237 239 239 242 249 258 264 264 262 260 259 262 267 271 273 276 280 282 282 282 283 282 283 284 285 289 295 298 300 303 307 310 312 312 314 316
335 331 330 331 327 319 310 295 277 257 234 221 213 206 205 206 202 198 196 195 192 187 184 184 187 189 192 194 192 190 187 186 186 188 191 195 198 201 205 210 215 220 223 225 228 230 231 234 237 237 237 240 249 258 265 266 263 259 257 258 262 268 274 277 278 280 280 280 281 282 282 283 284 287 293 298 298 301 306 308 310 313 314 316 320
337 332 331 330 324 314 304 294 281 260 241 230 221 215 213 209 204 202 199 195 193 188 181 180 184 189 193 196 194 191 190 192 193 194 197 200 204 208 212 216 220 225 228 230 232 234 236 238 240 240 241 248 258 266 267 262 255 251 252 258 266 271 275 278 279 279 278 279 281 280 281 284 286 288 293 297 298 301 306 308 311 314 315 317 321
339 334 331 328 321 311 301 293 283 265 250 242 231 224 219 210 204 205 202 196 194 191 186 183 184 186 188 192 194 194 195 198 199 200 203 207 210 214 219 222 226 229 231 232 234 235 237 239 240 242 247 254 262 266 262 253 247 248 254 262 269 274 277 280 280 278 278 278 279 281 282 285 287 289 293 297 298 301 307 311 313 315 318 320 323
340 334 331 327 320 311 301 289 280 267 254 243 234 227 220 211 206 205 203 200 196 192 190 189 187 185 187 190 194 197 199 202 204 207 210 214 218 221 225 228 231 234 235 237 238 239 240 242 244 247 253 259 264 262 253 245 244 250 259 266 271 274 278 280 278 278 279 279 280 284 285 286 289 292 293 296 299 301 307 312 314 315 319 322 323
339 334 331 326 319 311 302 290 278 264 251 242 233 224 217 214 211 208 206 203 199 194 193 191 189 189 192 195 197 200 202 204 208 213 217 220 224 227 230 233 236 238 239 241 243 243 244 246 249 252 257 259 258 250 240 237 243 252 260 267 271 273 276 278 277 278 281 282 284 289 289 288 291 292 291 295 300 302 306 311 313 315 319 322 323
339 334 331 326 319 311 301 291 280 262 250 246 239 228 221 218 215 213 211 206 201 199 198 194 192 194 197 200 202 204 206 208 211 215 220 225 228 231 234 237 239 241 243 244 243 244 246 247 248 252 253 249 242 233 229 233 245 254 260 265 269 270 274 277 279 281 284 286 289 292 292 291 293 292 292 296 301 302 305 309 312 315 319 323 324
339 334 330 326 321 312 301 293 285 267 255 251 244 237 232 227 221 217 213 207 203 202 202 200 198 199 201 204 208 210 211 213 216 220 224 228 232 234 237 240 242 243 244 244 242 242 243 242 242 243 240 232 225 223 228 237 247 254 258 262 265 269 273 276 278 282 287 290 293 295 294 293 293 292 293 298 301 302 306 310 313 317 322 324 326
341 336 331 326 322 314 304 297 288 275 266 259 249 244 240 234 227 223 216 211 209 208 206 205 205 204 205 208 210 213 215 218 221 224 227 231 234 237 239 242 244 244 245 244 243 241 237 234 232 230 225 219 218 223 232 242 248 252 256 260 263 267 271 274 278 284 290 293 296 297 295 294 295 293 294 298 300 301 306 311 315 318 322 323 327
342 338 333 326 321 316 310 303 293 282 276 267 256 251 246 237 232 228 221 215 214 212 210 210 210 210 211 212 212 215 219 223 226 229 232 234 236 239 241 242 244 245 244 242 239 233 226 222 221 219 215 216 221 229 237 244 248 250 253 258 261 265 270 273 278 286 291 295 298 298 295 294 295 294 293 297 300 301 306 311 315 318 321 323 326
344 341 335 327 323 319 313 306 298 290 283 273 264 260 252 242 237 234 227 222 219 216 214 214 213 214 216 218 219 222 226 229 232 235 236 236 238 240 241 241 242 241 238 233 224 217 214 213 213 213 214 220 227 235 240 244 246 248 251 256 259 263 269 273 279 287 294 297 298 297 295 295 296 294 293 297 299 301 306 311 315 318 321 322 324